Date,TemperatureHighF,TemperatureAvgF,TemperatureLowF,DewpointHighF,DewpointAvgF,DewpointLowF,HumidityHigh,HumidityAvg,HumidityLow,PressureMaxIn,PressureMinIn,WindSpeedMaxMPH,WindSpeedAvgMPH,GustSpeedMaxMPH,PrecipitationSumIn
2013-10-1,74.7,66.2,54.4,52.0,43.0,32.0,68,46,21,29.96,29.53,11,2,0,0.00
2013-10-2,74.2,60.5,44.3,55.0,42.3,34.0,93,56,25,30.00,29.78,5,1,0,0.52
2013-10-3,59.3,57.9,55.9,58.0,56.2,54.0,97,94,89,29.89,29.78,7,1,0,0.33
2013-10-4,57.3,56.2,54.4,56.0,54.1,53.0,96,93,88,29.93,29.78,7,2,0,0.19
2013-10-5,59.5,53.3,41.2,59.0,48.7,40.0,97,85,59,29.80,29.70,11,1,0,0.17
2013-10-6,52.6,46.3,40.9,50.0,44.7,40.0,96,94,86,29.83,29.66,6,1,0,0.05
2013-10-7,65.8,52.5,41.8,47.0,42.2,38.0,92,71,37,29.95,29.81,4,0,0,0.02
2013-10-8,76.3,63.5,52.8,47.0,44.0,40.0,70,51,31,29.92,29.77,16,4,0,0.00
2013-10-9,75.3,64.8,58.3,53.0,48.4,46.0,69,56,38,29.99,29.87,11,3,0,0.00
2013-10-10,76.3,64.0,54.2,55.0,48.5,44.0,69,58,40,29.98,29.82,10,1,0,0.00
2013-10-11,73.7,65.1,56.6,61.0,53.5,50.0,89,67,50,29.82,29.58,26,4,0,0.14
2013-10-12,57.3,50.6,44.6,51.0,41.2,36.0,84,71,49,30.15,29.66,15,2,0,0.01
2013-10-13,59.2,47.2,36.8,40.0,35.2,32.0,86,66,38,30.41,30.17,3,0,0,0.00
2013-10-14,53.6,47.5,38.6,47.0,38.6,35.0,92,72,53,30.37,29.92,10,1,0,0.19
2013-10-15,53.3,49.4,45.7,52.0,47.7,44.0,96,93,89,29.90,29.63,14,2,0,0.60
2013-10-16,53.6,46.0,42.3,44.0,38.8,33.0,94,77,52,29.94,29.80,9,1,0,0.07
2013-10-17,58.7,46.1,39.5,45.0,38.3,32.0,92,76,44,29.86,29.74,4,1,0,0.06
2013-10-18,51.4,43.7,36.6,40.0,34.1,28.0,93,72,41,29.97,29.82,9,1,0,0.08
2013-10-19,46.5,38.9,32.5,39.0,34.2,28.0,91,83,68,29.82,29.67,7,1,0,0.04
2013-10-20,46.8,37.8,30.6,41.0,32.7,27.0,89,82,66,29.87,29.59,10,1,0,0.05
2013-10-21,38.3,34.3,28.1,32.0,22.3,19.0,83,62,50,29.97,29.87,10,1,0,0.00
2013-10-22,37.5,29.4,26.1,31.0,25.2,22.0,88,84,73,30.01,29.96,3,0,0,0.00